User: anonymous   Login
Location: Fort Wayne
(41.1310°N, 85.1290°W)
Time: 03:23:12
(UTC-04:00)
Language:

SL-08 RB Rocket - Orbit

View from above orbital plane
View from above orbital plane
View from above satellite
View from above satellite

Ground track
Ground track

The orbit data is extracted from the following two-line orbital elements,

1 26387U 00033D   17112.83229269 +.00000216 +00000-0 +45704-4 0  9998
2 26387 097.9755 178.5220 0027277 150.5461 343.6200 14.68259829899752
Epoch (UTC): 22 April 2017 19:58:30
Eccentricity: 0.0027277
inclination: 97.9755°
perigee height: 647 km
apogee height: 686 km
right ascension of ascending node: 178.5220°
argument of perigee: 150.5461°
revolutions per day: 14.68259829
mean anomaly at epoch: 343.6200°
orbit number at epoch: 89975

The dashed part of the orbit path shows where the satellite is in the earth's shadow,  

DLR